Regional Weather Roundup
Issued by NWS

Home | Current Version | Previous Version | Text Only | Print | Product List | Glossary On
Versions: 1 2 3 4 5 6 7 8 9 10 11 12 13 14 15 16 17 18 19 20 21 22 23 24 25 26 27 28 29 30 31 32 33 34 35 36 37 38 39 40 41 42 43 44 45 46 47 48 49 50
000
ASUS46 KSEW 060710
RWRWA

WASHINGTON REGIONAL WEATHER ROUNDUP
NATIONAL WEATHER SERVICE SEATTLE WA
1200 AM PDT WED MAY 06 2015

NOTE:"FAIR" INDICATES FEW OR NO CLOUDS BELOW 12,000 FEET WITH NO
SIGNIFICANT WEATHER AND/OR OBSTRUCTIONS TO VISIBILITY.

WAZ505-507>509-060800-
SEATTLE, TACOMA, EVERETT, AND VICINITY

CITY           SKY/WX    TMP DP  RH WIND       PRES   REMARKS
EVERETT        MOCLDY    45  42  89 CALM      30.11S
BOEING FIELD   MOCLDY    48  42  80 CALM      30.11S
RENTON         MOCLDY    46  43  89 S5        30.11S
SEATAC AIRPORT MOCLDY    46  44  93 SE6       30.11R
JBLM-MCCHORD   MOCLDY    46  45  99 SW5       30.10S
PUYALLUP       PTSUNNY   43  43 100 CALM      30.10S
BREMERTON      MOCLDY    45  43  93 CALM      30.12F
JBLM-FT LEWIS  MOCLDY    43  43  99 SE2       30.10S
TACOMA NARROWS CLOUDY    45  44  97 CALM      30.10S
$$

WAZ001-503-506-510-514-515-060800-
NORTH INTERIOR

CITY           SKY/WX    TMP DP  RH WIND       PRES   REMARKS
BELLINGHAM     CLEAR     48  42  80 SE3       30.10S
FRIDAY HARBOR  CLEAR     44  42  93 VRB3      30.11R
EASTSOUND      CLEAR     46  43  87 CALM      30.09R
PORT ANGELES   PTCLDY    45  40  82 W9        30.11S
NAS WHIDBEY    PTCLDY    45  41  86 E5        30.12R
ARLINGTON      CLOUDY    45  37  76 CALM      30.13S
BURLINGTON     CLOUDY    41  41 100 CALM      30.12R
$$

WAZ020-022-039-040-504-511-512-060800-
SOUTHWEST INTERIOR

CITY           SKY/WX    TMP DP  RH WIND       PRES   REMARKS
SHELTON        CLOUDY    43  42  97 SW6       30.09F
OLYMPIA        CLOUDY    47  45  93 W3        30.11S
CHEHALIS       DRIZZLE   46  45  93 CALM      30.12S
KELSO          MOCLDY    48  39  71 CALM      30.15S
VANCOUVER      MOCLDY    48  39  71 CALM      30.11S
SCAPPOOSE, OR  CLOUDY    50  40  68 CALM      30.10S
PORTLAND, OR   MOCLDY    51  41  68 N5        30.12R
$$

WAZ021-516-517-060800-
WASHINGTON COAST

CITY           SKY/WX    TMP DP  RH WIND       PRES   REMARKS
FORKS          CLEAR     40  40 100 CALM      30.12S
HOQUIAM        MOCLDY    47  45  93 NE5       30.11S
ASTORIA, OR    CLOUDY    49  46  90 E5        30.11F
$$

WAZ019-023-024-040-518-519-060800-
CASCADE MOUNTAINS AND COLUMBIA GORGE

CITY           SKY/WX    TMP DP  RH WIND       PRES   REMARKS
TROUTDALE, OR  PTCLDY    50  40  68 CALM      30.10S
THE DALLES, OR CLEAR     48  39  71 NW5       30.06S
$$

WAZ026-027-041>044-520-521-060800-
EAST SLOPES

CITY           SKY/WX    TMP DP  RH WIND       PRES   REMARKS
OMAK           PTCLDY    43  33  68 NW9       29.97S
WENATCHEE      PTCLDY    48  29  47 W12       29.99S
ELLENSBURG     CLOUDY    44  33  65 NW10      29.99S
YAKIMA         MOCLDY    43  30  60 CALM      30.01F
$$

WAZ028-034-035-060800-
COLUMBIA BASIN

CITY           SKY/WX    TMP DP  RH WIND       PRES   REMARKS
EPHRATA        CLEAR     47  24  40 NW14      29.95R
MOSES LAKE     CLEAR     47  29  49 W6        29.96S
PASCO          CLEAR     48  30  49 CALM      30.01R
HERMISTON, OR  CLEAR     48  34  58 SW9       30.02R
$$

WAZ036>038-060800-
NORTHEAST WASHINGTON

CITY           SKY/WX    TMP DP  RH WIND       PRES   REMARKS
SPOKANE GEIGER MOCLDY    46  25  43 SW8       29.93S
SPOKANE FELTS  MOCLDY    44  28  53 CALM      29.95R
FAIRCHILD AFB  MOCLDY    42  24  48 SW8       29.93S
COEURDALENE,ID PTCLDY    41  30  65 CALM      29.96R
DEER PARK      PTCLDY    33  26  75 NW3       29.94S
$$

WAZ029>033-060800-
SOUTHEAST WASHINGTON

CITY           SKY/WX    TMP DP  RH WIND       PRES   REMARKS
PULLMAN        CLEAR     45  28  51 W5        29.98S
LEWISTON, ID   CLEAR     50  25  37 SW8       29.96S
WALLA WALLA    CLEAR     49  33  54 S9        30.01R
PENDLETON, OR  CLOUDY    48  32  53 W13       30.01R
$$


USA.gov is the U.S. government's official web portal to all federal, state and local government web resources and services.